FENGYUN 1C DEB, 38149

Orbit data source: Space-Track

FENGYUN 1C DEB, 38149 is space debris in SSO originally from a launch on Mon, 10 May 1999 UTC launched from the Taiyaun Space Center, China (TSC). Fengyun 1C debris stems from the Chinese weather satellite Fengyun-1C, which was intentionally destroyed by a Chinese anti-satellite missile in 2007. This event dramatically increased the amount of space debris, with thousands of trackable fragments posing hazards to satellites and human spaceflight. The Fengyun 1C debris cloud has become a focal point in discussions about space sustainability and the need for international regulations to prevent the creation of new debris.

Loading next visibility...
Identifier
38149, 1999-025EQW
Orbit
SSO
Country
Flag of CNCN / PRC
Related business
Manufacturer
Unknown
Mission
Spacecraft
Bus & Motor
Unknown
Mass
Unknown
Launch date (UTC)
1999-05-10 (27 years ago)
Launch vehicle
Unknown
Launch site
Taiyaun Space Center, China (TSC)
Object type
Payload
Rocket body
Debris
Shape & HBR
Unknown shape, 0.1 m
Radar Cross Section
Small (<0.1 m²)

Expand to show TLE details & history
Last TLE update: 5 days ago

TLE from 5 days ago
0 FENGYUN 1C DEB
1 38149U 99025EQW 26260.17638947  .00000331  00000-0  15028-3 0  9997
2 38149  98.3800 245.0218 0078707  64.1395 296.7875 14.26206154744565
Epoch: 2026-09-17T04:14Z
TLE epoch observation values (Epoch: 2026-09-17T04:14:00.050Z)
Latitude
-0.00004°
Longitude
-174.59579°
Altitude
782.247 km
Speed
7.476 km/s
True Right ascension
16h 20m 05s
True Declination
0° 00' 00"
Sunlit
Object was in daylight at epoch
Visualization orbit readout
Latitude
Unknown
Longitude
Unknown
Altitude
Unknown
Speed
Unknown
Apparent Right ascension
Unknown
Apparent Declination
Unknown
Sunlit
N/A
Visualization observer readout
Local Sidereal Time
03:42:18
Azimuth
Unknown
Elevation
Unknown
Doppler factor
Unknown
Orbital elements
Apogee altitude
858.084 km
Perigee altitude
745.065 km
Semi-major axis
7,179.712 km
Eccentricity
0.00787
Inclination
98.38°
RAAN
245.0218°
Arg. of periapsis
64.1395°
True anomaly
295.97882°
Mean anomaly
296.7875°
Eccentric anomaly
296.38351°
Mean motion
3.56765 °/min
Orbital period
100.91 mins
BSTAR
0.00015028
Loading maneuver chart data...
Computing Atmospheric mass density...

Documentation

Showing up to 5 results
|